Time,TemperatureF,DewpointF,PressureIn,WindDirection,WindDirectionDegrees,WindSpeedMPH,WindSpeedGustMPH,Humidity,HourlyPrecipIn,Conditions,Clouds,dailyrainin,SoftwareType,DateUTC
2013-02-25 00:01:00,39.0,21.0,29.87,SSE,168,6.0,9.0,49,0.00,,,0.00,,2013-02-25 08:01:00,
2013-02-25 00:11:00,39.0,21.0,29.87,SSE,168,6.0,9.0,49,0.00,,,0.00,,2013-02-25 08:11:00,
2013-02-25 00:21:00,39.0,21.0,29.87,SW,214,3.0,8.0,49,0.00,,,0.00,,2013-02-25 08:21:00,
2013-02-25 00:31:00,40.0,22.0,29.87,WSW,239,7.0,10.0,49,0.00,,,0.00,,2013-02-25 08:31:00,
2013-02-25 00:41:00,40.0,22.0,29.87,WSW,239,7.0,10.0,49,0.00,,,0.00,,2013-02-25 08:41:00,
2013-02-25 00:52:00,40.0,22.0,29.87,SSW,202,3.0,9.0,48,0.00,,,0.00,,2013-02-25 08:52:00,
2013-02-25 01:01:00,40.0,22.0,29.87,SSW,203,6.0,8.0,48,0.00,,,0.00,,2013-02-25 09:01:00,
2013-02-25 01:12:00,40.0,22.0,29.87,SSW,203,6.0,8.0,48,0.00,,,0.00,,2013-02-25 09:12:00,
2013-02-25 01:21:00,40.0,22.0,29.87,WSW,237,6.0,9.0,48,0.00,,,0.00,,2013-02-25 09:21:00,
2013-02-25 01:31:00,40.0,22.0,29.87,SW,214,7.0,13.0,49,0.00,,,0.00,,2013-02-25 09:31:00,
2013-02-25 01:41:00,40.0,22.0,29.87,SW,214,7.0,13.0,49,0.00,,,0.00,,2013-02-25 09:41:00,
2013-02-25 01:51:00,40.0,22.0,29.84,West,267,9.0,13.0,49,0.00,,,0.00,,2013-02-25 09:51:00,
2013-02-25 02:01:00,40.0,22.0,29.84,South,187,6.0,10.0,48,0.00,,,0.00,,2013-02-25 10:01:00,
2013-02-25 02:11:00,40.0,22.0,29.84,South,187,6.0,10.0,48,0.00,,,0.00,,2013-02-25 10:11:00,
2013-02-25 02:21:00,39.0,21.0,29.84,SSW,193,7.0,8.0,48,0.00,,,0.00,,2013-02-25 10:21:00,
2013-02-25 02:31:00,39.0,21.0,29.81,South,184,7.0,10.0,48,0.00,,,0.00,,2013-02-25 10:31:00,
2013-02-25 02:41:00,39.0,21.0,29.81,South,184,7.0,10.0,48,0.00,,,0.00,,2013-02-25 10:41:00,
2013-02-25 02:52:00,39.0,21.0,29.81,SSW,202,6.0,9.0,48,0.00,,,0.00,,2013-02-25 10:52:00,
2013-02-25 03:01:00,39.0,21.0,29.81,SSW,213,6.0,8.0,48,0.00,,,0.00,,2013-02-25 11:01:00,
2013-02-25 03:11:00,39.0,21.0,29.81,SSW,213,6.0,8.0,48,0.00,,,0.00,,2013-02-25 11:11:00,
2013-02-25 03:21:00,40.0,22.0,29.81,South,185,7.0,10.0,48,0.00,,,0.00,,2013-02-25 11:21:00,
2013-02-25 03:32:00,40.0,22.0,29.81,South,189,6.0,9.0,48,0.00,,,0.00,,2013-02-25 11:32:00,
2013-02-25 03:42:00,40.0,22.0,29.81,South,189,6.0,9.0,48,0.00,,,0.00,,2013-02-25 11:42:00,
2013-02-25 03:52:00,40.0,22.0,29.81,SW,223,6.0,8.0,49,0.00,,,0.00,,2013-02-25 11:52:00,
2013-02-25 04:01:00,40.0,23.0,29.81,SSW,212,7.0,12.0,50,0.00,,,0.00,,2013-02-25 12:01:00,
2013-02-25 04:11:00,40.0,23.0,29.81,SSW,212,7.0,12.0,50,0.00,,,0.00,,2013-02-25 12:11:00,
2013-02-25 04:21:00,40.0,23.0,29.81,WSW,245,6.0,10.0,51,0.00,,,0.00,,2013-02-25 12:21:00,
2013-02-25 04:32:00,39.0,25.0,29.84,WSW,247,7.0,16.0,56,0.00,,,0.00,,2013-02-25 12:32:00,
2013-02-25 04:41:00,39.0,25.0,29.84,WSW,247,7.0,16.0,56,0.00,,,0.00,,2013-02-25 12:41:00,
2013-02-25 04:53:00,39.0,26.0,29.84,WSW,243,9.0,14.0,60,0.00,,,0.00,,2013-02-25 12:53:00,
2013-02-25 05:01:00,38.0,28.0,29.87,SW,235,9.0,15.0,68,0.00,,,0.00,,2013-02-25 13:01:00,
2013-02-25 05:11:00,38.0,28.0,29.87,SW,235,9.0,15.0,68,0.00,,,0.00,,2013-02-25 13:11:00,
2013-02-25 05:21:00,37.0,27.0,29.84,SW,221,8.0,12.0,68,0.00,,,0.00,,2013-02-25 13:21:00,
2013-02-25 05:31:00,36.0,26.0,29.84,SW,235,8.0,12.0,66,0.00,,,0.00,,2013-02-25 13:31:00,
2013-02-25 05:41:00,36.0,26.0,29.84,SW,235,8.0,12.0,66,0.00,,,0.00,,2013-02-25 13:41:00,
2013-02-25 05:51:00,36.0,26.0,29.87,SW,229,9.0,14.0,66,0.00,,,0.00,,2013-02-25 13:51:00,
2013-02-25 06:02:00,36.0,24.0,29.87,SSW,212,10.0,14.0,62,0.00,,,0.00,,2013-02-25 14:02:00,
2013-02-25 06:13:00,36.0,24.0,29.87,SSW,212,10.0,14.0,62,0.00,,,0.00,,2013-02-25 14:13:00,
2013-02-25 06:21:00,36.0,24.0,29.87,WSW,253,7.0,15.0,61,0.00,,,0.00,,2013-02-25 14:21:00,
2013-02-25 06:31:00,35.0,23.0,29.87,WSW,245,8.0,14.0,61,0.00,,,0.00,,2013-02-25 14:31:00,
2013-02-25 06:41:00,35.0,23.0,29.87,WSW,245,8.0,14.0,61,0.00,,,0.00,,2013-02-25 14:41:00,
2013-02-25 06:52:00,35.0,23.0,29.90,WSW,255,6.0,10.0,62,0.00,,,0.00,,2013-02-25 14:52:00,
2013-02-25 07:02:00,34.0,22.0,29.90,West,260,6.0,10.0,61,0.00,,,0.00,,2013-02-25 15:02:00,
2013-02-25 07:11:00,34.0,22.0,29.90,West,260,6.0,10.0,61,0.00,,,0.00,,2013-02-25 15:11:00,
2013-02-25 07:21:00,34.0,23.0,29.87,WSW,242,6.0,10.0,64,0.00,,,0.00,,2013-02-25 15:21:00,
2013-02-25 07:32:00,35.0,23.0,29.87,SW,226,5.0,8.0,62,0.00,,,0.00,,2013-02-25 15:32:00,
2013-02-25 07:41:00,35.0,23.0,29.87,SW,226,5.0,8.0,62,0.00,,,0.00,,2013-02-25 15:41:00,
2013-02-25 07:51:00,35.0,23.0,29.90,West,280,5.0,9.0,60,0.00,,,0.00,,2013-02-25 15:51:00,
2013-02-25 08:01:00,36.0,22.0,29.90,West,272,3.0,9.0,56,0.00,,,0.00,,2013-02-25 16:01:00,
2013-02-25 08:11:00,36.0,22.0,29.90,West,272,3.0,9.0,56,0.00,,,0.00,,2013-02-25 16:11:00,
2013-02-25 08:21:00,37.0,21.0,29.90,West,281,7.0,10.0,53,0.00,,,0.00,,2013-02-25 16:21:00,
2013-02-25 08:31:00,38.0,22.0,29.90,West,272,6.0,12.0,52,0.00,,,0.00,,2013-02-25 16:31:00,
2013-02-25 08:41:00,38.0,22.0,29.90,West,272,6.0,12.0,52,0.00,,,0.00,,2013-02-25 16:41:00,
2013-02-25 08:51:00,37.0,21.0,29.93,NW,305,6.0,12.0,52,0.00,,,0.00,,2013-02-25 16:51:00,
2013-02-25 09:01:00,38.0,22.0,29.93,West,275,5.0,9.0,52,0.00,,,0.00,,2013-02-25 17:01:00,
2013-02-25 09:11:00,38.0,22.0,29.93,West,275,5.0,9.0,52,0.00,,,0.00,,2013-02-25 17:11:00,
2013-02-25 09:21:00,40.0,23.0,29.93,SW,214,5.0,10.0,51,0.00,,,0.00,,2013-02-25 17:21:00,
2013-02-25 09:31:00,40.0,22.0,29.93,West,268,10.0,14.0,49,0.00,,,0.00,,2013-02-25 17:31:00,
2013-02-25 09:41:00,40.0,22.0,29.93,West,268,10.0,14.0,49,0.00,,,0.00,,2013-02-25 17:41:00,
2013-02-25 09:52:00,40.0,22.0,29.93,West,270,9.0,14.0,49,0.00,,,0.00,,2013-02-25 17:52:00,
2013-02-25 10:01:00,39.0,22.0,29.93,WNW,282,7.0,12.0,50,0.00,,,0.00,,2013-02-25 18:01:00,
2013-02-25 10:12:00,39.0,22.0,29.93,WNW,282,7.0,12.0,50,0.00,,,0.00,,2013-02-25 18:12:00,
2013-02-25 10:21:00,39.0,22.0,29.93,West,270,8.0,13.0,50,0.00,,,0.00,,2013-02-25 18:21:00,
2013-02-25 10:32:00,40.0,21.0,29.93,West,265,10.0,14.0,46,0.00,,,0.00,,2013-02-25 18:32:00,
2013-02-25 10:41:00,40.0,21.0,29.93,West,265,10.0,14.0,46,0.00,,,0.00,,2013-02-25 18:41:00,
2013-02-25 10:51:00,41.0,22.0,29.93,WNW,287,8.0,10.0,46,0.00,,,0.00,,2013-02-25 18:51:00,
2013-02-25 11:01:00,43.0,21.0,29.93,WSW,257,12.0,17.0,41,0.00,,,0.00,,2013-02-25 19:01:00,
2013-02-25 11:11:00,43.0,21.0,29.93,WSW,257,12.0,17.0,41,0.00,,,0.00,,2013-02-25 19:11:00,
2013-02-25 11:21:00,44.0,21.0,29.93,WNW,295,15.0,21.0,40,0.00,,,0.00,,2013-02-25 19:21:00,
2013-02-25 11:31:00,44.0,21.0,29.96,West,262,9.0,20.0,40,0.00,,,0.00,,2013-02-25 19:31:00,
2013-02-25 11:41:00,44.0,21.0,29.96,West,262,9.0,20.0,40,0.00,,,0.00,,2013-02-25 19:41:00,
2013-02-25 11:52:00,44.0,21.0,29.96,WSW,240,12.0,17.0,39,0.00,,,0.00,,2013-02-25 19:52:00,
2013-02-25 12:01:00,42.0,20.0,29.96,WSW,255,7.0,13.0,41,0.00,,,0.00,,2013-02-25 20:01:00,
2013-02-25 12:11:00,42.0,20.0,29.96,WSW,255,7.0,13.0,41,0.00,,,0.00,,2013-02-25 20:11:00,
2013-02-25 12:21:00,41.0,19.0,29.96,WNW,289,10.0,15.0,41,0.00,,,0.00,,2013-02-25 20:21:00,
2013-02-25 12:31:00,41.0,20.0,29.96,West,281,14.0,17.0,42,0.00,,,0.00,,2013-02-25 20:31:00,
2013-02-25 12:41:00,41.0,20.0,29.96,West,281,14.0,17.0,42,0.00,,,0.00,,2013-02-25 20:41:00,
2013-02-25 12:52:00,41.0,20.0,29.93,WNW,298,13.0,20.0,42,0.00,,,0.00,,2013-02-25 20:52:00,
2013-02-25 13:01:00,40.0,20.0,29.93,WNW,298,13.0,16.0,44,0.00,,,0.00,,2013-02-25 21:01:00,
2013-02-25 13:11:00,40.0,20.0,29.93,WNW,298,13.0,16.0,44,0.00,,,0.00,,2013-02-25 21:11:00,
2013-02-25 13:21:00,41.0,22.0,29.93,West,276,10.0,15.0,47,0.00,,,0.00,,2013-02-25 21:21:00,
2013-02-25 13:31:00,43.0,21.0,29.93,West,271,12.0,20.0,41,0.00,,,0.00,,2013-02-25 21:31:00,
2013-02-25 13:41:00,43.0,21.0,29.93,West,271,12.0,20.0,41,0.00,,,0.00,,2013-02-25 21:41:00,
2013-02-25 13:51:00,44.0,21.0,29.93,West,260,14.0,22.0,40,0.00,,,0.00,,2013-02-25 21:51:00,
2013-02-25 14:01:00,44.0,21.0,29.93,WSW,243,7.0,15.0,39,0.00,,,0.00,,2013-02-25 22:01:00,
2013-02-25 14:11:00,44.0,21.0,29.93,WSW,243,7.0,15.0,39,0.00,,,0.00,,2013-02-25 22:11:00,
2013-02-25 14:21:00,44.0,21.0,29.93,WSW,243,7.0,15.0,39,0.00,,,0.00,,2013-02-25 22:21:00,
2013-02-25 14:31:00,42.0,17.0,29.93,West,275,14.0,18.0,36,0.00,,,0.00,,2013-02-25 22:31:00,
2013-02-25 14:41:00,42.0,17.0,29.93,West,275,14.0,18.0,36,0.00,,,0.00,,2013-02-25 22:41:00,
2013-02-25 14:52:00,41.0,16.0,29.93,NW,309,13.0,24.0,36,0.00,,,0.00,,2013-02-25 22:52:00,
2013-02-25 15:01:00,41.0,17.0,29.93,WNW,301,10.0,15.0,38,0.00,,,0.00,,2013-02-25 23:01:00,
2013-02-25 15:11:00,41.0,17.0,29.93,WNW,301,10.0,15.0,38,0.00,,,0.00,,2013-02-25 23:11:00,
2013-02-25 15:22:00,40.0,17.0,29.93,WNW,297,17.0,25.0,39,0.00,,,0.00,,2013-02-25 23:22:00,
2013-02-25 15:31:00,39.0,17.0,29.96,WNW,301,14.0,20.0,40,0.00,,,0.00,,2013-02-25 23:31:00,
2013-02-25 15:41:00,39.0,17.0,29.96,WNW,301,14.0,20.0,40,0.00,,,0.00,,2013-02-25 23:41:00,
2013-02-25 15:51:00,37.0,17.0,29.96,NW,309,13.0,21.0,43,0.00,,,0.00,,2013-02-25 23:51:00,
2013-02-25 16:01:00,37.0,19.0,29.96,WNW,282,10.0,17.0,47,0.00,,,0.00,,2013-02-26 00:01:00,
2013-02-25 16:11:00,37.0,19.0,29.96,WNW,282,10.0,17.0,47,0.00,,,0.00,,2013-02-26 00:11:00,
2013-02-25 16:21:00,37.0,18.0,29.96,WNW,288,12.0,15.0,45,0.00,,,0.00,,2013-02-26 00:21:00,
2013-02-25 16:32:00,37.0,18.0,29.96,NW,315,12.0,21.0,46,0.00,,,0.00,,2013-02-26 00:32:00,
2013-02-25 16:41:00,37.0,18.0,29.96,NW,315,12.0,21.0,46,0.00,,,0.00,,2013-02-26 00:41:00,
2013-02-25 16:51:00,36.0,18.0,29.96,WNW,292,16.0,24.0,47,0.00,,,0.00,,2013-02-26 00:51:00,
2013-02-25 17:01:00,35.0,19.0,29.99,WNW,295,14.0,18.0,52,0.00,,,0.00,,2013-02-26 01:01:00,
2013-02-25 17:11:00,35.0,19.0,29.99,WNW,295,14.0,18.0,52,0.00,,,0.00,,2013-02-26 01:11:00,
2013-02-25 17:21:00,35.0,20.0,29.99,WNW,296,11.0,15.0,53,0.00,,,0.00,,2013-02-26 01:21:00,
2013-02-25 17:31:00,35.0,20.0,29.99,WNW,292,10.0,20.0,53,0.00,,,0.00,,2013-02-26 01:31:00,
2013-02-25 17:41:00,35.0,20.0,29.99,WNW,292,10.0,20.0,53,0.00,,,0.00,,2013-02-26 01:41:00,
2013-02-25 17:51:00,33.0,18.0,29.99,WNW,285,12.0,17.0,53,0.00,,,0.00,,2013-02-26 01:51:00,
2013-02-25 18:01:00,32.0,17.0,29.99,WNW,284,10.0,15.0,54,0.00,,,0.00,,2013-02-26 02:01:00,
2013-02-25 18:11:00,32.0,17.0,29.99,WNW,284,10.0,15.0,54,0.00,,,0.00,,2013-02-26 02:11:00,
2013-02-25 18:21:00,32.0,17.0,29.99,West,267,7.0,14.0,54,0.00,,,0.00,,2013-02-26 02:21:00,
2013-02-25 18:31:00,32.0,17.0,29.99,WSW,257,6.0,13.0,53,0.00,,,0.00,,2013-02-26 02:31:00,
2013-02-25 18:41:00,32.0,17.0,29.99,WSW,257,6.0,13.0,53,0.00,,,0.00,,2013-02-26 02:41:00,
2013-02-25 18:52:00,32.0,17.0,29.99,West,276,10.0,15.0,54,0.00,,,0.00,,2013-02-26 02:52:00,
2013-02-25 19:01:00,32.0,17.0,29.99,West,272,6.0,9.0,54,0.00,,,0.00,,2013-02-26 03:01:00,
2013-02-25 19:11:00,32.0,17.0,29.99,West,272,6.0,9.0,54,0.00,,,0.00,,2013-02-26 03:11:00,
2013-02-25 19:21:00,32.0,17.0,30.02,WSW,237,5.0,7.0,54,0.00,,,0.00,,2013-02-26 03:21:00,
2013-02-25 19:31:00,32.0,17.0,30.02,WSW,248,3.0,9.0,54,0.00,,,0.00,,2013-02-26 03:31:00,
2013-02-25 19:41:00,32.0,17.0,30.02,WSW,248,3.0,9.0,54,0.00,,,0.00,,2013-02-26 03:41:00,
2013-02-25 19:51:00,32.0,18.0,30.02,WNW,283,5.0,10.0,55,0.00,,,0.00,,2013-02-26 03:51:00,
2013-02-25 20:01:00,32.0,18.0,30.02,WSW,253,4.0,7.0,55,0.00,,,0.00,,2013-02-26 04:01:00,
2013-02-25 20:11:00,32.0,18.0,30.02,WSW,253,4.0,7.0,55,0.00,,,0.00,,2013-02-26 04:11:00,
2013-02-25 20:21:00,32.0,18.0,30.02,WSW,257,6.0,10.0,56,0.00,,,0.00,,2013-02-26 04:21:00,
2013-02-25 20:31:00,31.0,18.0,30.02,NW,306,7.0,12.0,59,0.00,,,0.00,,2013-02-26 04:31:00,
2013-02-25 20:42:00,31.0,18.0,30.02,NW,306,7.0,12.0,59,0.00,,,0.00,,2013-02-26 04:42:00,
2013-02-25 20:51:00,30.0,18.0,30.05,West,279,10.0,14.0,61,0.00,,,0.00,,2013-02-26 04:51:00,
2013-02-25 21:01:00,29.0,17.0,30.02,WNW,282,6.0,9.0,61,0.00,,,0.00,,2013-02-26 05:01:00,
2013-02-25 21:11:00,29.0,17.0,30.02,WNW,282,6.0,9.0,61,0.00,,,0.00,,2013-02-26 05:11:00,
2013-02-25 21:21:00,29.0,18.0,30.05,WNW,292,7.0,13.0,62,0.00,,,0.00,,2013-02-26 05:21:00,
2013-02-25 21:31:00,29.0,18.0,30.05,WNW,292,9.0,15.0,62,0.00,,,0.00,,2013-02-26 05:31:00,
2013-02-25 21:42:00,29.0,18.0,30.05,WNW,292,9.0,15.0,62,0.00,,,0.00,,2013-02-26 05:42:00,
2013-02-25 21:52:00,29.0,17.0,30.05,West,271,5.0,12.0,61,0.00,,,0.00,,2013-02-26 05:52:00,
2013-02-25 22:01:00,29.0,17.0,30.05,West,269,6.0,10.0,61,0.00,,,0.00,,2013-02-26 06:01:00,
2013-02-25 22:11:00,29.0,17.0,30.05,West,269,6.0,10.0,61,0.00,,,0.00,,2013-02-26 06:11:00,
2013-02-25 22:21:00,29.0,18.0,30.05,WSW,242,6.0,12.0,62,0.00,,,0.00,,2013-02-26 06:21:00,
2013-02-25 22:31:00,29.0,18.0,30.05,SSW,210,5.0,7.0,62,0.00,,,0.00,,2013-02-26 06:31:00,
2013-02-25 22:41:00,29.0,18.0,30.05,SSW,210,5.0,7.0,62,0.00,,,0.00,,2013-02-26 06:41:00,
2013-02-25 22:51:00,28.0,17.0,30.05,WSW,242,5.0,7.0,62,0.00,,,0.00,,2013-02-26 06:51:00,
2013-02-25 23:01:00,28.0,17.0,30.05,WSW,256,7.0,10.0,63,0.00,,,0.00,,2013-02-26 07:01:00,
2013-02-25 23:11:00,28.0,17.0,30.05,WSW,256,7.0,10.0,63,0.00,,,0.00,,2013-02-26 07:11:00,
2013-02-25 23:21:00,28.0,17.0,30.05,WSW,248,7.0,13.0,63,0.00,,,0.00,,2013-02-26 07:21:00,
2013-02-25 23:31:00,29.0,18.0,30.05,West,259,6.0,10.0,62,0.00,,,0.00,,2013-02-26 07:31:00,
2013-02-25 23:41:00,29.0,18.0,30.05,West,259,6.0,10.0,62,0.00,,,0.00,,2013-02-26 07:41:00,
2013-02-25 23:51:00,29.0,17.0,30.05,WSW,250,7.0,13.0,61,0.00,,,0.00,,2013-02-26 07:51:00,